Wind_Speed
12 12 12 12 12 12 11 9 8 8 8 6 5 4 3 3 3 4 6 7 8 8 8 8 8 7 6 5 5 4 4 3 3 2 2 2 2 2 2 2 3 3 3
11 12 12 12 12 11 10 9 8 8 8 6 5 4 4 3 3 4 5 6 7 7 8 8 8 8 8 7 6 5 4 4 4 3 3 3 3 4 4 4 4 4 4
11 13 12 12 12 10 9 9 9 9 7 6 5 4 4 4 5 5 6 6 7 8 8 8 8 8 9 8 8 7 6 6 5 5 4 4 4 5 5 5 5 5 5
11 12 12 13 11 10 10 9 9 9 8 7 6 6 5 6 5 6 7 7 6 7 8 9 9 8 9 9 9 8 7 7 7 7 6 6 6 6 6 7 7 7 7
11 12 12 13 11 10 9 8 8 8 7 7 7 6 6 6 6 7 8 8 8 8 9 10 10 10 10 10 10 10 9 9 8 8 8 8 8 8 8 8 9 9 9
11 11 11 12 11 10 9 8 8 7 7 7 7 7 6 6 7 7 7 8 8 9 9 10 11 11 11 12 12 12 11 11 10 10 10 10 10 10 10 10 11 11 11
9 10 11 11 10 9 9 8 8 7 6 7 6 6 5 5 6 6 7 7 7 8 10 10 11 11 12 12 13 13 13 12 12 12 12 12 12 12 12 13 13 14 14
10 10 10 11 10 9 9 8 8 7 6 6 6 6 5 6 6 6 6 7 7 9 9 9 10 11 12 13 14 14 14 14 14 14 15 15 15 15 15 15 16 17 17
10 10 10 10 10 9 9 9 9 7 7 6 6 6 5 5 6 6 6 6 8 9 10 10 10 11 12 14 15 15 15 16 15 16 16 17 18 18 18 18 18 19 21
10 11 10 10 10 10 10 10 9 8 8 7 7 6 5 5 6 6 6 7 8 9 10 11 12 12 13 14 14 16 17 17 18 18 19 19 20 20 21 21 21 22 22
12 12 11 11 11 11 10 10 10 9 9 8 7 7 6 6 7 7 8 8 8 9 10 11 12 13 13 14 14 16 17 18 19 20 21 21 22 23 23 23 23 24 24
13 13 12 12 12 11 11 10 10 10 10 9 9 8 8 8 7 7 8 9 9 10 10 10 11 13 13 14 15 16 18 19 20 21 21 22 23 24 24 25 25 25 26
13 13 13 13 12 11 11 11 11 11 10 11 10 10 10 9 9 9 9 10 11 11 11 11 12 13 14 15 16 17 19 20 21 22 23 23 24 24 25 26 26 27 27
13 13 14 14 13 12 12 12 12 12 12 12 12 12 11 11 11 11 10 11 11 12 12 13 14 15 16 17 18 19 20 21 22 23 24 24 24 25 26 27 28 28 27
15 15 15 14 13 13 13 13 13 13 13 14 13 13 13 13 13 13 13 13 13 14 14 15 15 16 17 19 20 21 21 22 23 23 24 25 25 26 27 27 27 28 28
16 16 15 14 15 15 15 15 14 14 14 15 15 15 15 15 15 15 15 15 15 15 16 17 18 19 19 20 21 22 23 23 24 25 26 26 27 27 27 28 28 29 28
17 17 16 16 16 16 16 16 15 15 15 16 16 16 16 16 16 17 17 17 17 17 18 18 19 20 21 21 23 24 25 25 25 25 25 26 27 27 26 27 27 28 28
17 17 18 18 18 17 16 16 17 16 17 17 17 17 17 17 17 18 18 18 18 19 19 20 20 21 22 23 23 24 25 25 26 26 26 27 27 27 27 28 28 29 30
18 18 18 18 18 18 18 19 18 19 19 19 18 18 18 18 18 19 19 20 20 20 21 21 22 22 24 24 25 25 25 26 26 27 27 27 27 27 29 29 30 31 31
19 19 20 20 19 19 20 20 20 21 21 21 20 19 19 20 20 20 21 21 21 21 22 23 24 24 25 25 26 26 26 27 27 28 28 28 29 29 29 30 31 31 32
21 21 21 21 21 21 21 22 22 22 22 22 21 21 21 21 22 22 22 22 23 23 23 24 24 25 26 26 26 27 27 28 28 28 29 29 30 30 30 31 31 31 31
22 22 22 23 23 23 23 24 24 24 23 23 22 23 22 22 22 22 23 23 24 25 25 25 25 26 26 27 27 28 28 28 28 29 30 30 30 31 31 31 31 32 32
23 24 24 24 25 25 25 25 25 25 25 24 23 23 23 23 23 24 24 25 26 25 25 25 26 27 27 28 29 28 28 29 28 29 30 30 30 31 31 32 32 33 33
26 26 26 26 26 27 27 27 26 26 26 24 24 23 23 23 24 25 25 25 26 26 27 27 27 27 28 28 28 28 28 28 28 29 29 29 30 31 31 31 31 32 33
28 28 28 28 28 28 27 27 27 26 25 24 24 23 23 23 24 24 25 26 26 26 26 26 26 27 27 27 27 27 27 28 28 28 28 29 30 30 30 30 31 32 32
28 29 28 28 28 28 27 27 27 27 26 25 24 24 24 25 25 25 26 26 26 26 26 26 26 26 26 27 27 27 27 27 27 27 28 28 29 30 30 31 32 31 31
Wind_Direction
346 348 348 346 346 345 349 351 347 351 349 342 338 321 292 256 239 224 222 220 214 214 216 215 217 217 213 208 202 201 204 203 208 223 237 251 256 270 289 286 281 276 278
340 342 341 340 340 343 344 345 346 345 346 341 329 319 301 264 245 237 232 225 218 219 224 219 218 218 220 223 221 219 218 224 229 237 242 252 264 274 279 283 276 274 278
329 332 338 338 335 337 337 340 337 339 340 339 328 317 305 277 256 243 238 235 228 228 229 226 227 228 226 227 229 233 233 236 240 245 249 254 264 272 278 279 277 275 276
323 324 331 335 331 329 329 333 336 333 329 325 318 310 293 281 272 253 244 238 237 234 231 234 233 232 229 230 231 233 238 241 245 248 252 260 264 270 274 277 277 277 278
322 322 327 329 326 326 330 328 330 332 328 321 318 312 297 281 277 262 251 244 245 244 241 237 236 237 236 235 236 236 241 244 247 251 257 260 263 267 273 276 276 275 275
318 324 326 328 331 332 334 332 329 330 331 326 321 319 303 286 279 265 256 250 250 248 250 243 239 240 240 240 242 242 245 247 249 252 259 264 267 267 270 274 277 276 275
313 321 326 328 332 333 337 337 338 333 331 330 325 321 311 296 290 273 258 252 247 251 253 252 246 246 244 245 248 248 250 252 254 259 262 263 266 269 271 273 275 275 275
310 317 323 327 327 327 333 340 340 334 333 332 325 319 315 310 302 291 275 262 259 260 255 252 252 251 250 250 251 252 254 254 258 263 265 265 267 270 272 274 274 273 273
305 312 317 322 324 323 325 330 334 332 330 330 326 325 318 311 305 296 287 271 270 266 259 258 258 256 255 253 253 254 256 258 260 264 267 268 269 271 273 274 275 275 274
302 306 313 316 322 321 320 323 327 323 321 322 322 317 312 311 305 292 286 280 274 270 263 261 262 265 264 260 257 258 258 260 262 264 268 270 270 272 275 275 275 276 276
298 301 304 309 314 318 318 317 321 317 312 313 315 312 305 305 305 296 286 284 281 276 274 268 268 268 268 266 264 261 260 263 265 267 269 270 273 273 273 275 276 276 277
293 298 301 302 306 310 313 313 313 313 307 306 305 305 303 300 298 299 294 286 286 283 279 277 273 271 270 269 268 266 266 267 269 271 272 274 274 273 273 275 277 278 278
287 293 297 299 301 304 308 312 308 306 304 300 299 299 297 295 295 293 295 292 287 286 284 282 279 277 277 275 273 272 271 272 273 273 274 275 277 276 275 276 278 279 278
281 289 293 294 298 300 304 307 306 303 300 298 296 296 294 291 291 293 294 294 294 293 287 284 282 281 279 279 278 278 277 276 275 275 276 276 277 276 277 278 278 278 278
273 282 286 289 295 298 300 302 302 302 298 295 295 296 295 291 289 291 293 294 295 295 290 285 285 283 282 280 281 281 280 279 278 278 279 280 279 278 279 281 280 279 280
271 279 282 283 289 294 298 300 300 300 297 293 292 294 294 292 289 289 290 290 289 289 290 287 285 285 285 283 283 283 282 281 280 281 282 282 282 281 280 281 283 283 283
269 274 279 283 287 292 295 298 299 298 296 293 291 289 290 290 288 287 288 288 288 288 289 289 288 287 286 285 284 284 284 282 283 282 282 283 285 285 285 284 285 286 286
264 270 276 280 286 291 292 295 298 296 297 294 291 290 287 286 287 289 287 286 286 287 289 290 291 290 290 288 287 286 285 284 284 284 285 286 286 287 287 285 286 286 285
262 267 274 279 284 289 292 294 295 296 294 292 289 289 286 284 285 286 288 286 286 286 287 289 291 291 290 290 289 287 287 285 286 286 287 287 289 289 289 289 289 288 287
262 267 273 278 282 287 291 291 293 295 294 293 288 288 286 285 284 285 287 287 288 288 287 288 289 291 293 292 291 290 289 288 288 288 288 287 288 290 290 290 290 290 289
261 266 271 275 279 283 288 290 292 292 292 294 291 289 286 286 286 285 286 288 288 289 289 289 290 292 294 294 294 291 291 290 289 288 288 287 287 289 290 290 290 291 291
260 264 269 274 278 281 285 289 289 290 291 291 290 288 286 286 285 286 287 288 289 290 289 289 291 293 294 294 295 294 292 292 290 288 288 289 289 290 291 291 291 291 292
258 263 268 271 276 278 282 288 287 287 288 287 287 286 285 286 286 286 287 287 288 288 289 289 291 293 294 295 295 296 294 292 290 289 290 290 290 291 290 290 291 292 293
258 262 266 270 274 278 280 284 285 285 287 285 284 284 285 286 288 287 287 289 289 288 289 291 291 292 294 295 296 296 295 294 293 293 292 291 290 290 290 291 293 293 294
258 261 266 269 273 276 280 283 284 284 283 283 281 282 283 286 288 289 289 290 290 290 290 292 294 295 296 296 296 297 296 297 297 296 295 294 293 293 293 293 294 295 295
257 261 265 268 271 275 278 281 282 282 281 280 280 281 284 285 287 289 290 291 291 291 292 293 295 296 297 297 297 298 299 300 298 298 296 295 296 296 296 296 296 296 296
Height
5922 5920 5917 5915 5912 5910 5908 5906 5905 5903 5902 5901 5900 5899 5899 5899 5899 5899 5899 5899 5900 5901 5902 5903 5904 5904 5905 5906 5906 5907 5907 5907 5907 5907 5907 5907 5907 5907 5907 5906 5906 5905 5905
5921 5919 5917 5914 5912 5910 5907 5906 5904 5903 5901 5900 5899 5898 5898 5898 5898 5898 5898 5898 5899 5899 5900 5902 5902 5903 5904 5905 5905 5906 5906 5906 5907 5907 5907 5907 5908 5906 5906 5906 5905 5905 5904
5921 5918 5916 5914 5911 5909 5907 5905 5903 5902 5901 5899 5898 5897 5897 5897 5897 5897 5897 5897 5897 5898 5899 5900 5901 5902 5903 5903 5904 5905 5905 5906 5906 5906 5906 5907 5906 5906 5906 5905 5904 5904 5903
5920 5918 5915 5913 5911 5908 5906 5904 5903 5901 5900 5899 5898 5897 5896 5896 5895 5895 5895 5896 5896 5897 5897 5898 5899 5900 5901 5902 5902 5903 5904 5904 5905 5905 5905 5905 5905 5904 5904 5904 5903 5902 5902
5919 5917 5914 5912 5910 5907 5905 5903 5902 5900 5899 5897 5896 5895 5894 5894 5893 5893 5893 5894 5895 5895 5896 5896 5897 5898 5899 5900 5901 5902 5902 5902 5903 5903 5903 5903 5903 5902 5902 5902 5901 5901 5900
5918 5916 5914 5911 5908 5906 5904 5902 5900 5899 5898 5896 5895 5894 5893 5892 5892 5891 5892 5892 5893 5893 5894 5894 5895 5896 5897 5898 5898 5899 5900 5900 5901 5901 5901 5901 5901 5900 5900 5900 5899 5898 5898
5917 5915 5912 5910 5908 5906 5904 5902 5899 5898 5897 5896 5894 5893 5892 5891 5890 5889 5890 5890 5891 5891 5892 5892 5892 5893 5894 5895 5896 5897 5897 5898 5898 5898 5898 5898 5898 5898 5898 5897 5896 5896 5895
5915 5914 5911 5909 5907 5905 5903 5901 5899 5898 5896 5895 5894 5892 5891 5890 5889 5888 5888 5888 5889 5889 5889 5890 5890 5891 5891 5892 5893 5894 5894 5895 5895 5895 5895 5895 5895 5895 5894 5894 5893 5892 5892
5914 5912 5910 5908 5906 5904 5903 5901 5899 5897 5896 5894 5893 5891 5890 5889 5888 5887 5887 5886 5887 5887 5887 5888 5888 5888 5889 5889 5889 5890 5891 5891 5891 5892 5892 5891 5891 5891 5890 5890 5889 5889 5887
5912 5911 5909 5907 5905 5903 5902 5900 5898 5897 5895 5894 5892 5891 5889 5888 5887 5886 5886 5885 5885 5885 5885 5885 5886 5886 5886 5885 5886 5886 5887 5887 5887 5887 5887 5887 5887 5887 5886 5885 5884 5883 5882
5910 5909 5908 5906 5904 5902 5900 5899 5897 5895 5894 5893 5891 5890 5889 5888 5886 5885 5885 5884 5884 5883 5883 5883 5883 5882 5882 5882 5882 5882 5883 5883 5883 5883 5883 5882 5882 5881 5880 5879 5878 5877 5876
5908 5906 5905 5904 5902 5900 5899 5897 5895 5894 5892 5891 5890 5889 5888 5887 5885 5884 5883 5883 5882 5881 5881 5880 5880 5880 5879 5879 5879 5879 5879 5878 5878 5878 5877 5877 5876 5875 5874 5873 5872 5871 5869
5905 5904 5903 5901 5900 5898 5897 5895 5893 5892 5890 5889 5888 5887 5886 5885 5884 5883 5882 5881 5880 5879 5878 5877 5877 5877 5876 5876 5875 5875 5874 5874 5873 5872 5872 5871 5870 5868 5867 5866 5865 5864 5862
5902 5901 5900 5899 5897 5896 5894 5893 5891 5890 5888 5887 5886 5885 5884 5883 5882 5881 5880 5879 5878 5877 5876 5875 5874 5873 5873 5872 5871 5870 5869 5868 5867 5867 5866 5864 5863 5862 5860 5859 5858 5856 5855
5898 5898 5897 5896 5894 5893 5892 5890 5889 5887 5886 5885 5883 5882 5881 5880 5880 5879 5877 5876 5875 5874 5873 5872 5871 5870 5869 5868 5866 5865 5864 5863 5862 5861 5860 5858 5857 5855 5853 5852 5851 5849 5847
5895 5894 5893 5893 5892 5890 5889 5887 5886 5884 5883 5882 5881 5879 5878 5877 5876 5875 5874 5873 5872 5871 5869 5868 5867 5865 5864 5863 5862 5860 5859 5858 5856 5855 5853 5851 5850 5848 5846 5845 5843 5842 5840
5891 5891 5890 5889 5888 5887 5886 5884 5882 5881 5880 5879 5877 5876 5875 5874 5873 5872 5871 5869 5868 5867 5865 5864 5862 5861 5859 5858 5856 5855 5853 5852 5850 5848 5846 5845 5843 5841 5840 5838 5836 5835 5833
5887 5887 5886 5885 5884 5884 5882 5881 5879 5877 5876 5875 5874 5872 5871 5870 5869 5868 5866 5865 5864 5862 5861 5859 5857 5856 5854 5852 5850 5849 5847 5845 5844 5842 5840 5838 5836 5834 5833 5831 5829 5828 5826
5882 5882 5882 5881 5880 5879 5878 5877 5875 5873 5872 5870 5869 5868 5866 5865 5864 5863 5861 5860 5859 5857 5856 5854 5852 5850 5848 5847 5845 5843 5841 5839 5837 5835 5833 5831 5830 5828 5826 5823 5821 5819 5817
5877 5877 5877 5876 5876 5875 5873 5872 5871 5869 5867 5865 5864 5863 5861 5860 5859 5857 5856 5855 5853 5852 5850 5848 5847 5845 5842 5841 5839 5837 5835 5833 5831 5829 5826 5824 5822 5820 5818 5816 5813 5811 5808
5872 5872 5872 5871 5871 5870 5869 5867 5866 5864 5862 5860 5859 5857 5856 5855 5853 5852 5851 5849 5848 5846 5844 5842 5840 5839 5836 5834 5832 5830 5828 5825 5823 5821 5819 5817 5814 5812 5810 5808 5805 5802 5799
5866 5866 5866 5866 5865 5864 5863 5862 5860 5859 5857 5855 5853 5852 5851 5849 5848 5846 5845 5844 5842 5840 5838 5836 5834 5832 5830 5828 5825 5823 5821 5818 5816 5813 5811 5809 5806 5804 5802 5799 5796 5794 5791
5860 5860 5860 5860 5859 5858 5857 5856 5854 5853 5851 5849 5848 5846 5845 5843 5842 5841 5839 5838 5836 5834 5832 5830 5828 5826 5824 5821 5818 5816 5813 5811 5808 5806 5803 5801 5798 5796 5793 5791 5788 5785 5782
5853 5854 5854 5854 5853 5852 5851 5850 5848 5847 5845 5843 5842 5840 5839 5837 5836 5834 5833 5831 5829 5827 5825 5823 5821 5819 5817 5814 5811 5809 5806 5803 5801 5798 5795 5793 5790 5788 5785 5782 5779 5776 5773
5846 5847 5847 5847 5846 5845 5844 5843 5841 5840 5839 5837 5836 5834 5833 5831 5830 5828 5826 5824 5822 5820 5819 5816 5814 5812 5809 5807 5804 5802 5799 5796 5793 5790 5787 5785 5782 5779 5776 5773 5771 5768 5764
5839 5839 5839 5839 5839 5838 5837 5836 5835 5834 5832 5831 5830 5828 5827 5825 5824 5822 5820 5817 5815 5814 5812 5810 5807 5805 5802 5799 5797 5794 5792 5788 5786 5783 5780 5777 5774 5771 5768 5765 5762 5759 5755